Погода в Семипалатинске

Погода в Семипалатинске : погода сейчас, прогноз погоды и архив. Всё, что Вы хотите узнать о погоде в Семипалатинске!

Хотите узнать прогноз погоды в Семипалатинске? Тогда Вам сюда: Погода в Семипалатинске

Поиск расширенной информации на нашем сайте:

Другие новости

Новости СМИ2

Главная страница сайта

Новости сайта

03.07.2017

Напоминаем, что на нашем специализированном сайте Метеоцентр.Азия вы можете получить высокодетализированные автоматические прогнозы погоды по пунктам России, СНГ и мира в авиационном формате (включающие направление и скорость ветра, видимость, явления погоды, количество и форму облачности, нижнюю и верхнюю границу облачности).

Рекомендуем: игры драки на http://proxgame.com

Погода в Семипалатинске - сегодня

Время (UTC), дата Ветер
(°,м/с) 
Видим.   Явления Облачность Т
(°С)
Тd
(°С)
f(%) Тe
(°С)
Pmin
(гПа)
dP
(гПа)
Po
(мм)
O2
(г/м3)
Тmin Tmax R s Состояние
почвы
21 12.08.18 тихо ()   н/о  слаб. ливневой дождь  10/10 600 м кучево-дожд. 
[Cb calv]
+11.9 +7.8 76 +12  1010.1  0.5  740  284           
03 13.08.18 250 (З) 10 км  слаб. ливневой дождь  10/10 600 м кучево-дожд. 
[Cb calv]
+12.3 +10.6 89 +15  1012  1.4  742  284         
09 13.08.18 270 (З) 10 км  в посл. час ливневой дождь  9/8 600 м кучево-дожд., средняя 
[Cb calv|Ac trans]
+15.9 +12.1 78 +19  1014.7  1.1  744  281           
21 13.08.18 тихо ()   н/о  дымка  4/0 средняя 
[Ac trans]
+10.5 +9.9 96 +12  1019.1  747  288           
06 14.08.18 360 (С) 10 км    6/6 1500 м 
[Cu med, cong]
+21.7 +10.2 48 +23  1019.4  -0.8  748  277  +8.3         
09 14.08.18 340 (С) 10 км    8/8 1500 м 
[Cu med, cong]
+24.3 +8 35 +24  1018.5  -0.7  747  275           
12 14.08.18 020 (С) 10 км    4/4 1000 м 
[Cu hum]
+23.2 +8.6 39 +23  1018  -0.5  747  276           
15 14.08.18 360 (С) н/о    ясно 
+18.1 +10 59 +20  1018.4  747  280    +24.5       
18 14.08.18 тихо ()   н/о    ясно 
+13.4 +10.5 83 +15  1018.6  -0.2  746  285    +24.5       
21 14.08.18 тихо ()   н/о    ясно 
+9.3 +7.8 90 +9  1018.5  -0.4  746  289           
00 15.08.18 тихо ()   4000 м  дымка  ясно 
+7.2 +6.3 94 +7  1019  0.3  746  292           
06 15.08.18 070 (В) 10 км    ясно 
+22.5 +9.4 43 +23  1016.2  -1.3  745  276  +7         
09 15.08.18 090 (В) 10 км    ясно 
+25.5 +6.6 30 +26  1014  -2  744  273           
12 15.08.18 090 (В) 10 км    ясно 
+26.6 +6.5 28 +27  1012.7  -1.2  743  272           
15 15.08.18 тихо ()   н/о    ясно 
+16.6 +8.9 60 +17  1013.2  -0.2  743  281    +27.3       
18 15.08.18 тихо ()   н/о    ясно 
+11.4 +9.6 89 +12  1013.3  -0.3  743  285    +27.3       
21 15.08.18 тихо ()   н/о    ясно 
+9.2 +7.7 90 +9  1012.9  -0.6  742  288           
00 16.08.18 тихо ()   4000 м  дымка  ясно 
+9.6 +8.4 92 +10  1012.6  -0.3  742  287           
06 16.08.18 090 (В) 10 км    6/0 средняя, верхняя 
[Ac trans|Ci fib]
+28.2 +10 32 +30  1008.8  -1.6  740  269  +8         
09 16.08.18 050 (СВ) 10 км    9/3 1500 м средняя, верхняя 
[Cu hum|Ac trans|Ci fib]
+31.6 +8.7 24 +32  1006.9  -1.7  739  265           
15 16.08.18 тихо ()   н/о    9/8 1000 м средняя 
[Sc|Ac trans]
+23.9 +12.3 48 +29  1004.5  -1.2  737  271    +33       
21 16.08.18 090 (В) н/о    ясно 
+20.4 +10.6 53 +23  1001.9  -1.5  735  273           
09 17.08.18 270 (З) 10 км  в посл. час ливневой дождь  8/8 600 м кучево-дожд. 
[Cb calv]
+26.7 +13.2 43 +33  1005.6  0.6  738  268           
21 17.08.18 тихо ()   н/о    ясно 
+13.8 +11.6 87 +17  1010.3  0.1  740  282           
09 18.08.18 050 (СВ) 10 км    3/3 1000 м 
[Cu med, cong]
+30.2 +9.9 28 +31  1008.6  -1.7  740  267           
Время (UTC), дата Ветер
(°,м/с) 
Видим.   Явления Облачность Т
(°С)
Тd
(°С)
f(%) Тe
(°С)
Pmin
(гПа)
dP
(гПа)
Po
(мм)
O2
(г/м3)
Тmin Tmax R s Состояние
почвы

Для получения пояснительной информации подведите курсор к названию столбца.

ПОГОДА в Семипалатинске - архив

Всё, что Вы хотите узнать о погоде в Семипалатинске - удобно и подробно!

Выберите нужную дату (начиная с 1 января 2015* года) и нажмите кнопку "Найти".
Будут отображены архивные сводки погоды по пункту Семипалатинск, начиная с указанной даты.


Отображать данные в формате CSV (для использования в таблицах Excel)


Внимание! Наш архив погоды предназначен исключительно для личного некоммерческого использования в познавательных целях. Если Вам необходимы официальные справки о состоянии погоды (для производственных, юридических, коммерческих и т.п. целей), обращайтесь в органы Росгидромета.

*Примечание: данная дата относится к архиву по метеостанциям СССР (Россия, СНГ, Балтия).
Архив по метеостанциям Зарубежной Европы и Азии (кроме Китая) хранится 10 дней, по другим регионам земного шара (Китай, Африка, Америка, Австралия, Океания) - 1 день.

Семипалатинск - район местоположения метеостанции


Название, широта, долгота, высота метеостанции:
Семипалатинск 50.4°ш. 80.3°д. 196 м над ур. моря [Казахстан]

Дополнительная информация

В oтличие oт бoльшинства пoгoдных сайтoв мы публикуем пoдрoбную метеoинфoрмацию в детальнoм прoфессиoнальнoм фoрмате.

Характеристики температуры и влажнoсти вoздуха измеряются на высoте 2 м в тени вдали oт зданий и деревьев.
Скoрoсть ветра измеряется на высoте 10 м (на урoвне рoста челoвека скoрoсть ветра ниже в 1.5-2 раза). Если метеoстанция нахoдится в гoрoде или в лесу, тo скoрoсть ветра занижена на 2-4 м/с пo сравнению с oткрытым местoм. Скoрoсть ветра над акватoриями крупных рек и oзёр, а также на вершинах хoлмoв на 2-5 м/с выше, чем в oбычных услoвиях.
Атмoсфернoе давление в разных тoчках местнoсти мoжет значительнo oтличаться oт давления на метеoстанции, в зависимoсти oт услoвий рельефа (при пoдъёме на 10 м давление пoнижается примернo на 1 мм рт.ст.).